{"data":{"norad_id":67394,"intl_designator":"2026-004AH","name":"TWILIGHT-1 OBJECT AH","alt_names":[],"object_type":"PAYLOAD","status":"ACTIVE","operator":null,"country":"TBD","launch_date":"2026-01-11","launch_site_code":"AFWTR","launch_vehicle":null,"mission":null,"orbit_class":"UNKNOWN","rcs_meters":null,"size_class":null,"mass_kg":null,"dimensions":null,"purposes":[],"wikipedia_slug":null,"has_3d_model":false,"image_url":null,"decayed_at":null,"tle_current":{"epoch":"2026-05-24T23:29:18.130848Z","epoch_age_seconds":70761,"freshness":"FRESH","line1":"1 67394U 26004AH  26144.97868207  .00003692  00000+0  17843-3 0  9990","line2":"2 67394  97.4491 144.3824 0010423  63.4999 296.7303 15.19206849 20244","mean_motion":15.19206849,"eccentricity":0.0010423,"inclination_deg":97.4491,"raan_deg":144.3824,"arg_perigee_deg":63.4999,"mean_anomaly_deg":296.7303,"bstar":0.00017843,"rev_number":2024,"period_min":94.786302533316,"perigee_km":501.05874019568,"apogee_km":515.41407420032,"semimajor_km":6886.373407198,"source":"CELESTRAK","updated_at":"2026-05-25T13:38:06.959602Z"}}}